• In United Kingdom
  • List of Countries
  • For 7 days
  • Water Temperature
  • Satellite Maps
  • Weather Map
  • Weather Widgets
  • user-avatar
    Login

    Hourly Weather Graz

    Today, 23 June, Friday

    Time Temperature Precipitation Wind Pressure Humidity
    00:00 +20°C° 0 mm 2 mps 723 mmHg 84%
    01:00 +21°C° 0 mm 1 mps 723 mmHg 86%
    02:00 +20°C° 0 mm 2 mps 723 mmHg 85%
    03:00 +20°C° 0 mm 2 mps 723 mmHg 85%
    04:00 +20°C° 0 mm 2 mps 723 mmHg 85%
    05:00 +21°C° 0 mm 2 mps 723 mmHg 81%
    06:00 +23°C° 0 mm 2 mps 723 mmHg 77%
    07:00 +24°C° 0 mm 1 mps 724 mmHg 76%
    08:00 +26°C° 0 mm 1 mps 724 mmHg 66%
    09:00 +28°C° 0 mm 2 mps 724 mmHg 57%
    10:00 +31°C° 0 mm 3 mps 724 mmHg 47%
    11:00 +31°C° 0 mm 3 mps 724 mmHg 44%
    12:00 +33°C° 0 mm 3 mps 724 mmHg 41%
    13:00 +34°C° 0 mm 3 mps 724 mmHg 37%
    14:00 +34°C° 0 mm 3 mps 724 mmHg 40%
    15:00 +33°C° 0 mm 3 mps 724 mmHg 43%
    16:00 +33°C° 0 mm 3 mps 724 mmHg 46%
    17:00 +30°C° 0 mm 2 mps 724 mmHg 53%
    18:00 +28°C° 0 mm 2 mps 724 mmHg 60%
    19:00 +27°C° 0 mm 1 mps 724 mmHg 66%
    20:00 +25°C° 0.1 mm 1 mps 724 mmHg 70%
    21:00 +24°C° 0.1 mm 1 mps 725 mmHg 74%
    22:00 +22°C° 0.1 mm 1 mps 725 mmHg 78%
    23:00 +21°C° 0 mm 1 mps 725 mmHg 81%

    Tomorrow, 24 June, Saturday

    Time Temperature Precipitation Wind Pressure Humidity
    00:00 +20°C° 0 mm 1 mps 725 mmHg 83%
    01:00 +20°C° 0 mm 1 mps 725 mmHg 86%
    02:00 +19°C° 0.1 mm 1 mps 725 mmHg 87%
    03:00 +19°C° 0.1 mm 1 mps 725 mmHg 88%
    04:00 +18°C° 0.1 mm 1 mps 725 mmHg 89%
    05:00 +20°C° 0 mm 1 mps 726 mmHg 82%
    06:00 +23°C° 0 mm 1 mps 726 mmHg 76%
    07:00 +25°C° 0 mm 1 mps 726 mmHg 69%
    08:00 +26°C° 0 mm 1 mps 726 mmHg 64%
    09:00 +28°C° 0 mm 1 mps 726 mmHg 59%
    10:00 +29°C° 0 mm 2 mps 726 mmHg 53%
    11:00 +30°C° 0.1 mm 2 mps 726 mmHg 53%
    12:00 +31°C° 0.1 mm 2 mps 726 mmHg 53%
    13:00 +31°C° 0.1 mm 2 mps 725 mmHg 52%
    14:00 +31°C° 0.8 mm 2 mps 725 mmHg 57%
    15:00 +30°C° 0.8 mm 2 mps 725 mmHg 62%
    16:00 +29°C° 0.8 mm 2 mps 724 mmHg 67%
    17:00 +28°C° 1.1 mm 2 mps 724 mmHg 73%
    18:00 +27°C° 1.1 mm 1 mps 724 mmHg 80%
    19:00 +26°C° 1.1 mm 1 mps 724 mmHg 86%
    20:00 +24°C° 0.8 mm 1 mps 724 mmHg 89%
    21:00 +23°C° 0.8 mm 1 mps 724 mmHg 92%
    22:00 +22°C° 0.8 mm 1 mps 724 mmHg 94%
    23:00 +21°C° 1.2 mm 1 mps 724 mmHg 94%

    Day after tomorrow, 25 June, Sunday

    Time Temperature Precipitation Wind Pressure Humidity
    00:00 +21°C° 1.2 mm 1 mps 724 mmHg 94%
    01:00 +21°C° 1.2 mm 1 mps 724 mmHg 94%
    02:00 +21°C° 1.5 mm 1 mps 724 mmHg 95%
    03:00 +20°C° 1.5 mm 1 mps 724 mmHg 96%
    04:00 +20°C° 1.5 mm 1 mps 724 mmHg 97%
    05:00 +21°C° 1.1 mm 1 mps 724 mmHg 95%
    06:00 +21°C° 1.1 mm 1 mps 724 mmHg 94%
    07:00 +22°C° 1.1 mm 1 mps 724 mmHg 93%
    08:00 +22°C° 1.1 mm 1 mps 724 mmHg 92%
    09:00 +22°C° 1.1 mm 1 mps 724 mmHg 92%
    10:00 +22°C° 1.1 mm 1 mps 724 mmHg 92%
    11:00 +21°C° 3.2 mm 2 mps 724 mmHg 93%
    12:00 +20°C° 3.2 mm 2 mps 724 mmHg 94%
    13:00 +19°C° 3.2 mm 2 mps 724 mmHg 95%
    14:00 +19°C° 3.6 mm 2 mps 724 mmHg 95%
    15:00 +18°C° 3.6 mm 2 mps 724 mmHg 95%
    16:00 +18°C° 3.6 mm 1 mps 724 mmHg 95%
    17:00 +18°C° 1 mm 1 mps 724 mmHg 95%
    18:00 +18°C° 1 mm 1 mps 724 mmHg 95%
    19:00 +18°C° 1 mm 1 mps 724 mmHg 95%
    20:00 +16°C° 0.1 mm 1 mps 724 mmHg 95%
    21:00 +16°C° 0.1 mm 1 mps 724 mmHg 94%
    22:00 +15°C° 0.1 mm 2 mps 724 mmHg 94%
    23:00 +15°C° 0 mm 1 mps 724 mmHg 94%

    26 June, Monday

    Time Temperature Precipitation Wind Pressure Humidity
    00:00 +14°C° 0 mm 1 mps 724 mmHg 94%
    01:00 +14°C° 0 mm 1 mps 724 mmHg 94%
    02:00 +14°C° 0 mm 1 mps 724 mmHg 94%
    03:00 +14°C° 0 mm 1 mps 724 mmHg 93%
    04:00 +13°C° 0 mm 1 mps 724 mmHg 93%
    05:00 +15°C° 0 mm 1 mps 724 mmHg 89%
    06:00 +18°C° 0 mm 1 mps 725 mmHg 86%
    07:00 +18°C° 0 mm 0 mps 725 mmHg 82%
    08:00 +22°C° 0 mm 1 mps 725 mmHg 71%
    09:00 +24°C° 0 mm 1 mps 725 mmHg 61%
    10:00 +27°C° 0 mm 1 mps 725 mmHg 51%
    11:00 +27°C° 0 mm 1 mps 725 mmHg 49%
    12:00 +28°C° 0 mm 2 mps 725 mmHg 48%
    13:00 +29°C° 0 mm 2 mps 725 mmHg 46%
    14:00 +29°C° 0 mm 2 mps 724 mmHg 48%
    15:00 +28°C° 0 mm 2 mps 724 mmHg 50%
    16:00 +28°C° 0 mm 2 mps 724 mmHg 52%
    17:00 +27°C° 0 mm 2 mps 724 mmHg 61%
    18:00 +25°C° 0 mm 2 mps 724 mmHg 71%
    19:00 +24°C° 0 mm 1 mps 724 mmHg 80%
    20:00 +21°C° 0 mm 1 mps 723 mmHg 84%
    21:00 +19°C° 0 mm 1 mps 723 mmHg 89%
    22:00 +16°C° 0 mm 1 mps 723 mmHg 93%
    23:00 +15°C° 0 mm 1 mps 723 mmHg 94%

    27 June, Tuesday

    Time Temperature Precipitation Wind Pressure Humidity
    00:00 +15°C° 0 mm 1 mps 723 mmHg 94%
    01:00 +13°C° 0 mm 0 mps 723 mmHg 94%
    02:00 +14°C° 0 mm 1 mps 723 mmHg 94%
    03:00 +14°C° 0 mm 1 mps 722 mmHg 94%
    04:00 +14°C° 0 mm 1 mps 722 mmHg 94%
    05:00 +18°C° 0 mm 1 mps 722 mmHg 87%
    06:00 +20°C° 0 mm 1 mps 723 mmHg 81%
    07:00 +23°C° 0 mm 1 mps 723 mmHg 75%
    08:00 +24°C° 0 mm 2 mps 723 mmHg 70%
    09:00 +26°C° 0 mm 2 mps 723 mmHg 64%
    10:00 +27°C° 0 mm 3 mps 723 mmHg 59%
    11:00 +28°C° 0 mm 3 mps 722 mmHg 58%
    12:00 +29°C° 0 mm 3 mps 722 mmHg 57%
    13:00 +29°C° 0 mm 3 mps 722 mmHg 55%
    14:00 +29°C° 0.4 mm 3 mps 721 mmHg 59%
    15:00 +29°C° 0.4 mm 3 mps 721 mmHg 62%
    16:00 +29°C° 0.4 mm 3 mps 721 mmHg 65%
    17:00 +28°C° 0.4 mm 3 mps 721 mmHg 71%
    18:00 +26°C° 0.4 mm 2 mps 720 mmHg 77%
    19:00 +25°C° 0.4 mm 2 mps 720 mmHg 83%
    20:00 +24°C° 0 mm 2 mps 720 mmHg 86%
    21:00 +21°C° 0 mm 2 mps 720 mmHg 89%
    22:00 +20°C° 0 mm 1 mps 720 mmHg 92%
    23:00 +20°C° 0 mm 1 mps 720 mmHg 93%

    28 June, Wednesday

    Time Temperature Precipitation Wind Pressure Humidity
    00:00 +19°C° 0 mm 1 mps 720 mmHg 93%
    01:00 +19°C° 0 mm 1 mps 719 mmHg 94%
    02:00 +19°C° 0 mm 1 mps 719 mmHg 94%
    03:00 +18°C° 0 mm 1 mps 719 mmHg 94%
    04:00 +18°C° 0 mm 1 mps 719 mmHg 94%
    05:00 +20°C° 0 mm 1 mps 719 mmHg 89%
    06:00 +22°C° 0 mm 1 mps 719 mmHg 84%
    07:00 +23°C° 0 mm 2 mps 719 mmHg 80%
    08:00 +25°C° 0 mm 2 mps 719 mmHg 71%
    09:00 +27°C° 0 mm 3 mps 719 mmHg 63%
    10:00 +29°C° 0 mm 4 mps 718 mmHg 55%
    11:00 +30°C° 0 mm 4 mps 718 mmHg 52%
    12:00 +32°C° 0 mm 4 mps 718 mmHg 49%
    13:00 +33°C° 0 mm 5 mps 717 mmHg 46%
    14:00 +33°C° 0 mm 5 mps 717 mmHg 45%
    15:00 +33°C° 0 mm 5 mps 717 mmHg 45%
    16:00 +34°C° 0 mm 6 mps 717 mmHg 44%
    17:00 +32°C° 0 mm 5 mps 717 mmHg 52%
    18:00 +28°C° 0 mm 3 mps 717 mmHg 60%
    19:00 +26°C° 0 mm 2 mps 716 mmHg 68%
    20:00 +25°C° 0 mm 2 mps 716 mmHg 71%
    21:00 +24°C° 0 mm 2 mps 717 mmHg 74%
    22:00 +23°C° 0 mm 2 mps 717 mmHg 77%
    23:00 +21°C° 0 mm 2 mps 717 mmHg 78%
    Show more